This is the latest recevied weather packets stored in our database for station/object W2TAO. If no packets are shown the sender has not sent any weather packets the latest 10 day(s).
| Time | Temp. | Humidity | Pressure | Rain* | Wind** | Luminosity | Snow |
|---|---|---|---|---|---|---|---|
| 1777467448 | 12.22° C | 68% | 1016.2 hPa | 0 mm | - | 163 W/m² | - |
| 1777467143 | 12.78° C | 69% | 1016.4 hPa | 0 mm | - | 209 W/m² | - |
| 1777466841 | 12.22° C | 72% | 1016.5 hPa | 0 mm | - | 240 W/m² | - |
| 1777466539 | 11.67° C | 71% | 1016.9 hPa | 0 mm | - | 203 W/m² | - |
| 1777466235 | 11.67° C | 72% | 1017 hPa | 0 mm | - | 177 W/m² | - |
| 1777465931 | 11.67° C | 72% | 1016.8 hPa | 0 mm | - | 131 W/m² | - |
| 1777465628 | 11.11° C | 71% | 1016.9 hPa | 0 mm | - | 106 W/m² | - |
| 1777465323 | 11.67° C | 74% | 1016.8 hPa | 0 mm | - | 116 W/m² | - |
| 1777465016 | 11.11° C | 71% | 1016.9 hPa | 0 mm | - | 117 W/m² | - |
| 1777464711 | 11.11° C | 72% | 1017.2 hPa | 0 mm | - | 119 W/m² | - |
| 1777464408 | 11.11° C | 73% | 1017.1 hPa | 0 mm | - | 85 W/m² | - |
| 1777464104 | 11.11° C | 74% | 1017 hPa | 0 mm | - | 91 W/m² | - |
| 1777463803 | 11.11° C | 73% | 1016.8 hPa | 0 mm | - | 117 W/m² | - |
| 1777463499 | 11.11° C | 76% | 1016.9 hPa | 0 mm | - | 129 W/m² | - |
| 1777463195 | 11.11° C | 75% | 1017 hPa | 0 mm | - | 115 W/m² | - |
| 1777462891 | 11.11° C | 75% | 1017.1 hPa | 0 mm | - | 107 W/m² | - |
| 1777462587 | 11.11° C | 75% | 1017.2 hPa | 0 mm | - | 100 W/m² | - |
| 1777462283 | 11.11° C | 77% | 1017.2 hPa | 0 mm | - | 93 W/m² | - |
| 1777461978 | 10.56° C | 76% | 1017.2 hPa | 0 mm | - | 88 W/m² | - |
| 1777461676 | 10.56° C | 77% | 1017.1 hPa | 0 mm | - | 71 W/m² | - |
| 1777461376 | 10.56° C | 77% | 1017.2 hPa | 0 mm | - | 73 W/m² | - |
| 1777461073 | 10.56° C | 82% | 1017.1 hPa | 0 mm | - | 77 W/m² | - |
| 1777460768 | 10° C | 84% | 1017.1 hPa | 0 mm | - | 78 W/m² | - |
| 1777460464 | 10° C | 83% | 1017.4 hPa | 0 mm | - | 66 W/m² | - |
| 1777460160 | 10° C | 84% | 1017.6 hPa | 0 mm | - | 58 W/m² | - |
* Rain latest hour (hover to see other rain measurements)
** Current wind speed in m/s (hover to see current wind gust speed)